Time,TemperatureF,DewpointF,PressureIn,WindDirection,WindDirectionDegrees,WindSpeedMPH,WindSpeedGustMPH,Humidity,HourlyPrecipIn,Conditions,Clouds,dailyrainin,SoftwareType,DateUTC
2013-01-23 00:02:00,6.0,0.0,-100.00,South,180,3.0,5.0,75,0.00,,,0.00,,2013-01-23 06:02:00,
2013-01-23 00:12:00,6.0,0.0,-100.00,South,175,4.0,5.0,75,0.00,,,0.00,,2013-01-23 06:12:00,
2013-01-23 00:22:00,6.0,0.0,-100.00,South,190,4.0,5.0,76,0.00,,,0.00,,2013-01-23 06:22:00,
2013-01-23 00:32:00,6.0,0.0,-100.00,South,185,2.0,5.0,76,0.00,,,0.00,,2013-01-23 06:32:00,
2013-01-23 00:42:00,6.0,0.0,-100.00,South,170,3.0,4.0,76,0.00,,,0.00,,2013-01-23 06:42:00,
2013-01-23 00:52:00,6.0,0.0,-100.00,South,175,3.0,4.0,77,0.00,,,0.00,,2013-01-23 06:52:00,
2013-01-23 01:02:00,6.0,1.0,-100.00,SSE,165,2.0,4.0,77,0.00,,,0.00,,2013-01-23 07:02:00,
2013-01-23 01:12:00,6.0,1.0,-100.00,SSE,155,2.0,4.0,77,0.00,,,0.00,,2013-01-23 07:12:00,
2013-01-23 01:22:00,6.0,1.0,-100.00,SSE,165,2.0,5.0,77,0.00,,,0.00,,2013-01-23 07:22:00,
2013-01-23 01:33:00,6.0,1.0,-100.00,SSE,165,2.0,3.0,78,0.00,,,0.00,,2013-01-23 07:33:00,
2013-01-23 01:42:00,7.0,1.0,-100.00,South,175,4.0,6.0,78,0.00,,,0.00,,2013-01-23 07:42:00,
2013-01-23 01:52:00,7.0,1.0,-100.00,SSE,160,4.0,4.0,78,0.00,,,0.00,,2013-01-23 07:52:00,
2013-01-23 02:02:00,7.0,1.0,-100.00,SSE,160,3.0,4.0,78,0.00,,,0.00,,2013-01-23 08:02:00,
2013-01-23 02:12:00,7.0,1.0,-100.00,SSE,160,3.0,4.0,78,0.00,,,0.00,,2013-01-23 08:12:00,
2013-01-23 02:22:00,7.0,1.0,-100.00,SSE,160,3.0,4.0,79,0.00,,,0.00,,2013-01-23 08:22:00,
2013-01-23 02:33:00,7.0,1.0,-100.00,SSE,155,4.0,5.0,79,0.00,,,0.00,,2013-01-23 08:33:00,
2013-01-23 02:42:00,7.0,1.0,-100.00,SSE,160,3.0,4.0,79,0.00,,,0.00,,2013-01-23 08:42:00,
2013-01-23 02:52:00,7.0,1.0,-100.00,SSE,150,2.0,4.0,79,0.00,,,0.00,,2013-01-23 08:52:00,
2013-01-23 03:03:00,7.0,1.0,-100.00,SE,130,2.0,4.0,79,0.00,,,0.00,,2013-01-23 09:03:00,
2013-01-23 03:12:00,7.0,1.0,-100.00,SE,140,2.0,4.0,79,0.00,,,0.00,,2013-01-23 09:12:00,
2013-01-23 03:22:00,7.0,3.0,-100.00,SE,135,2.0,4.0,80,0.00,,,0.00,,2013-01-23 09:22:00,
2013-01-23 03:32:00,8.0,3.0,-100.00,South,170,3.0,4.0,80,0.00,,,0.00,,2013-01-23 09:32:00,
2013-01-23 03:43:00,8.0,3.0,-100.00,South,175,3.0,6.0,80,0.00,,,0.00,,2013-01-23 09:43:00,
2013-01-23 03:52:00,8.0,3.0,-100.00,South,170,2.0,4.0,80,0.00,,,0.00,,2013-01-23 09:52:00,
2013-01-23 04:03:00,8.0,3.0,-100.00,SSE,160,2.0,4.0,81,0.00,,,0.00,,2013-01-23 10:03:00,
2013-01-23 04:12:00,8.0,3.0,-100.00,SSE,165,2.0,4.0,81,0.00,,,0.00,,2013-01-23 10:12:00,
2013-01-23 04:22:00,8.0,3.0,-100.00,South,185,2.0,3.0,81,0.00,,,0.00,,2013-01-23 10:22:00,
2013-01-23 04:33:00,8.0,3.0,-100.00,South,180,2.0,3.0,82,0.00,,,0.00,,2013-01-23 10:33:00,
2013-01-23 04:43:00,8.0,3.0,-100.00,South,175,2.0,4.0,83,0.00,,,0.00,,2013-01-23 10:43:00,
2013-01-23 04:52:00,8.0,3.0,-100.00,SSE,165,2.0,3.0,83,0.00,,,0.00,,2013-01-23 10:52:00,
2013-01-23 05:02:00,8.0,5.0,-100.00,South,185,3.0,4.0,84,0.00,,,0.00,,2013-01-23 11:02:00,
2013-01-23 05:12:00,8.0,5.0,-100.00,South,180,3.0,4.0,84,0.00,,,0.00,,2013-01-23 11:12:00,
2013-01-23 05:22:00,8.0,5.0,-100.00,South,180,4.0,6.0,85,0.00,,,0.00,,2013-01-23 11:22:00,
2013-01-23 05:33:00,8.0,5.0,-100.00,South,170,4.0,7.0,86,0.00,,,0.00,,2013-01-23 11:33:00,
2013-01-23 05:43:00,8.0,5.0,-100.00,SSW,195,2.0,4.0,86,0.00,,,0.00,,2013-01-23 11:43:00,
2013-01-23 05:52:00,8.0,5.0,-100.00,SSW,205,3.0,4.0,86,0.00,,,0.00,,2013-01-23 11:52:00,
2013-01-23 06:03:00,9.0,5.0,-100.00,SSW,200,2.0,5.0,87,0.00,,,0.00,,2013-01-23 12:03:00,
2013-01-23 06:12:00,9.0,5.0,-100.00,SW,220,2.0,4.0,87,0.00,,,0.00,,2013-01-23 12:12:00,
2013-01-23 06:22:00,9.0,5.0,-100.00,SW,215,4.0,5.0,87,0.00,,,0.00,,2013-01-23 12:22:00,
2013-01-23 06:33:00,9.0,5.0,-100.00,SW,215,3.0,4.0,88,0.00,,,0.00,,2013-01-23 12:33:00,
2013-01-23 06:43:00,8.0,5.0,-100.00,SW,230,2.0,4.0,88,0.00,,,0.00,,2013-01-23 12:43:00,
2013-01-23 06:52:00,8.0,5.0,-100.00,WSW,250,2.0,4.0,88,0.00,,,0.00,,2013-01-23 12:52:00,
2013-01-23 07:03:00,7.0,5.0,-100.00,WSW,240,3.0,4.0,89,0.00,,,0.00,,2013-01-23 13:03:00,
2013-01-23 07:12:00,7.0,5.0,-100.00,WSW,245,3.0,4.0,89,0.00,,,0.00,,2013-01-23 13:12:00,
2013-01-23 07:23:00,6.0,3.0,-100.00,West,265,3.0,4.0,90,0.00,,,0.00,,2013-01-23 13:23:00,
2013-01-23 07:33:00,6.0,5.0,-100.00,WNW,285,3.0,4.0,90,0.00,,,0.00,,2013-01-23 13:33:00,
2013-01-23 07:42:00,6.0,3.0,-100.00,WNW,300,5.0,6.0,91,0.00,,,0.00,,2013-01-23 13:42:00,
2013-01-23 07:52:00,6.0,3.0,-100.00,WNW,295,4.0,4.0,91,0.00,,,0.00,,2013-01-23 13:52:00,
2013-01-23 08:02:00,6.0,3.0,-100.00,WNW,295,4.0,5.0,91,0.00,,,0.00,,2013-01-23 14:02:00,
2013-01-23 08:12:00,5.0,3.0,-100.00,WNW,285,4.0,5.0,92,0.00,,,0.00,,2013-01-23 14:12:00,
2013-01-23 08:23:00,5.0,3.0,-100.00,WNW,285,4.0,4.0,92,0.00,,,0.00,,2013-01-23 14:23:00,
2013-01-23 08:33:00,6.0,3.0,-100.00,West,280,4.0,5.0,92,0.00,,,0.00,,2013-01-23 14:33:00,
2013-01-23 08:42:00,7.0,5.0,-100.00,West,265,2.0,5.0,92,0.00,,,0.00,,2013-01-23 14:42:00,
2013-01-23 08:53:00,7.0,5.0,-100.00,West,280,4.0,6.0,92,0.00,,,0.00,,2013-01-23 14:53:00,
2013-01-23 09:03:00,8.0,7.0,-100.00,West,280,6.0,6.0,92,0.00,,,0.00,,2013-01-23 15:03:00,
2013-01-23 09:12:00,8.0,7.0,-100.00,WNW,285,7.0,8.0,92,0.00,,,0.00,,2013-01-23 15:12:00,
2013-01-23 09:22:00,9.0,7.0,-100.00,WNW,285,7.0,8.0,92,0.00,,,0.00,,2013-01-23 15:22:00,
2013-01-23 09:33:00,9.0,9.0,-100.00,WNW,295,7.0,9.0,92,0.00,,,0.00,,2013-01-23 15:33:00,
2013-01-23 09:43:00,10.0,9.0,-100.00,WNW,300,9.0,11.0,92,0.00,,,0.00,,2013-01-23 15:43:00,
2013-01-23 09:53:00,10.0,9.0,-100.00,WNW,295,9.0,12.0,91,0.00,,,0.00,,2013-01-23 15:53:00,
2013-01-23 10:03:00,10.0,9.0,-100.00,WNW,295,9.0,12.0,91,0.00,,,0.00,,2013-01-23 16:03:00,
2013-01-23 10:12:00,11.0,9.0,-100.00,WNW,295,10.0,12.0,90,0.00,,,0.00,,2013-01-23 16:12:00,
2013-01-23 10:23:00,11.0,9.0,-100.00,NW,305,11.0,14.0,89,0.00,,,0.00,,2013-01-23 16:23:00,
2013-01-23 10:33:00,11.0,9.0,-100.00,NW,305,12.0,16.0,88,0.00,,,0.00,,2013-01-23 16:33:00,
2013-01-23 10:42:00,12.0,9.0,-100.00,WNW,300,14.0,16.0,86,0.00,,,0.00,,2013-01-23 16:42:00,
2013-01-23 10:52:00,12.0,9.0,-100.00,NW,310,14.0,16.0,85,0.00,,,0.00,,2013-01-23 16:52:00,
2013-01-23 11:03:00,13.0,9.0,-100.00,NW,310,12.0,17.0,84,0.00,,,0.00,,2013-01-23 17:03:00,
2013-01-23 11:12:00,12.0,9.0,-100.00,NW,305,15.0,18.0,84,0.00,,,0.00,,2013-01-23 17:12:00,
2013-01-23 11:22:00,13.0,9.0,-100.00,NW,310,14.0,19.0,83,0.00,,,0.00,,2013-01-23 17:22:00,
2013-01-23 11:33:00,13.0,9.0,-100.00,WNW,290,15.0,20.0,82,0.00,,,0.00,,2013-01-23 17:33:00,
2013-01-23 11:42:00,13.0,9.0,-100.00,WNW,295,17.0,21.0,83,0.00,,,0.00,,2013-01-23 17:42:00,
2013-01-23 11:52:00,13.0,9.0,-100.00,WNW,295,17.0,21.0,81,0.00,,,0.00,,2013-01-23 17:52:00,
2013-01-23 12:03:00,13.0,9.0,-100.00,NW,305,18.0,26.0,79,0.00,,,0.00,,2013-01-23 18:03:00,
2013-01-23 12:12:00,14.0,9.0,-100.00,NW,305,21.0,24.0,77,0.00,,,0.00,,2013-01-23 18:12:00,
2013-01-23 12:23:00,14.0,7.0,-100.00,NW,310,23.0,28.0,76,0.00,,,0.00,,2013-01-23 18:23:00,
2013-01-23 12:33:00,13.0,7.0,-100.00,NW,315,19.0,29.0,75,0.00,,,0.00,,2013-01-23 18:33:00,
2013-01-23 12:43:00,13.0,7.0,-100.00,NW,310,21.0,27.0,75,0.00,,,0.00,,2013-01-23 18:43:00,
2013-01-23 12:52:00,12.0,5.0,-100.00,NNW,335,24.0,31.0,72,0.00,,,0.00,,2013-01-23 18:52:00,
2013-01-23 13:03:00,12.0,5.0,-100.00,NW,320,18.0,26.0,72,0.00,,,0.00,,2013-01-23 19:03:00,
2013-01-23 13:13:00,13.0,5.0,-100.00,NW,325,21.0,27.0,72,0.00,,,0.00,,2013-01-23 19:13:00,
2013-01-23 13:22:00,12.0,5.0,-100.00,NW,310,24.0,29.0,72,0.00,,,0.00,,2013-01-23 19:22:00,
2013-01-23 13:33:00,11.0,5.0,-100.00,NW,310,25.0,30.0,73,0.00,,,0.00,,2013-01-23 19:33:00,
2013-01-23 13:43:00,12.0,5.0,-100.00,NW,310,23.0,30.0,75,0.00,,,0.00,,2013-01-23 19:43:00,
2013-01-23 13:52:00,11.0,3.0,-100.00,NW,325,24.0,32.0,68,0.00,,,0.00,,2013-01-23 19:52:00,
2013-01-23 14:03:00,10.0,1.0,-100.00,NW,325,25.0,33.0,66,0.00,,,0.00,,2013-01-23 20:03:00,
2013-01-23 14:13:00,10.0,1.0,-100.00,NW,325,25.0,33.0,65,0.00,,,0.00,,2013-01-23 20:13:00,
2013-01-23 14:23:00,10.0,1.0,-100.00,NW,325,19.0,30.0,67,0.00,,,0.00,,2013-01-23 20:23:00,
2013-01-23 14:33:00,9.0,1.0,-100.00,NW,320,22.0,27.0,67,0.00,,,0.00,,2013-01-23 20:33:00,
2013-01-23 14:42:00,9.0,1.0,-100.00,NW,310,24.0,29.0,67,0.00,,,0.00,,2013-01-23 20:42:00,
2013-01-23 14:53:00,9.0,0.0,-100.00,NW,310,24.0,30.0,68,0.00,,,0.00,,2013-01-23 20:53:00,
2013-01-23 15:03:00,8.0,0.0,-100.00,NW,310,27.0,32.0,67,0.00,,,0.00,,2013-01-23 21:03:00,
2013-01-23 15:12:00,8.0,0.0,-100.00,NW,310,24.0,32.0,67,0.00,,,0.00,,2013-01-23 21:12:00,
2013-01-23 15:22:00,7.0,-2.0,-100.00,NW,305,26.0,32.0,67,0.00,,,0.00,,2013-01-23 21:22:00,
2013-01-23 15:33:00,8.0,0.0,-100.00,NW,325,20.0,32.0,67,0.00,,,0.00,,2013-01-23 21:33:00,
2013-01-23 15:42:00,7.0,-2.0,-100.00,NW,315,24.0,32.0,65,0.00,,,0.00,,2013-01-23 21:42:00,
2013-01-23 15:52:00,6.0,-4.0,-100.00,NNW,330,24.0,32.0,63,0.00,,,0.00,,2013-01-23 21:52:00,
2013-01-23 16:02:00,6.0,-4.0,-100.00,NW,315,24.0,30.0,62,0.00,,,0.00,,2013-01-23 22:02:00,
2013-01-23 16:12:00,5.0,-4.0,-100.00,NNW,330,24.0,29.0,62,0.00,,,0.00,,2013-01-23 22:12:00,
2013-01-23 16:23:00,5.0,-4.0,-100.00,NW,310,24.0,30.0,62,0.00,,,0.00,,2013-01-23 22:23:00,
2013-01-23 16:33:00,5.0,-4.0,-100.00,NNW,330,17.0,25.0,63,0.00,,,0.00,,2013-01-23 22:33:00,
2013-01-23 16:42:00,4.0,-6.0,-100.00,NW,320,20.0,27.0,63,0.00,,,0.00,,2013-01-23 22:42:00,
2013-01-23 16:52:00,4.0,-6.0,-100.00,NW,325,17.0,25.0,63,0.00,,,0.00,,2013-01-23 22:52:00,
2013-01-23 17:03:00,4.0,-6.0,-100.00,NNW,330,16.0,24.0,63,0.00,,,0.00,,2013-01-23 23:03:00,
2013-01-23 17:12:00,4.0,-6.0,-100.00,NNW,330,13.0,21.0,63,0.00,,,0.00,,2013-01-23 23:12:00,
2013-01-23 17:22:00,3.0,-8.0,-100.00,NW,315,17.0,22.0,64,0.00,,,0.00,,2013-01-23 23:22:00,
2013-01-23 17:33:00,2.0,-8.0,-100.00,NW,320,16.0,21.0,64,0.00,,,0.00,,2013-01-23 23:33:00,
2013-01-23 17:42:00,2.0,-8.0,-100.00,NW,325,17.0,24.0,64,0.00,,,0.00,,2013-01-23 23:42:00,
2013-01-23 17:52:00,2.0,-8.0,-100.00,NW,320,15.0,22.0,65,0.00,,,0.00,,2013-01-23 23:52:00,
2013-01-23 18:03:00,1.0,-8.0,-100.00,NW,320,16.0,21.0,65,0.00,,,0.00,,2013-01-24 00:03:00,
2013-01-23 18:12:00,1.0,-8.0,-100.00,NW,315,17.0,21.0,65,0.00,,,0.00,,2013-01-24 00:12:00,
2013-01-23 18:22:00,1.0,-8.0,-100.00,NW,320,15.0,21.0,65,0.00,,,0.00,,2013-01-24 00:22:00,
2013-01-23 18:32:00,1.0,-8.0,-100.00,NW,325,14.0,20.0,65,0.00,,,0.00,,2013-01-24 00:32:00,
2013-01-23 18:42:00,1.0,-8.0,-100.00,NNW,330,12.0,17.0,65,0.00,,,0.00,,2013-01-24 00:42:00,
2013-01-23 18:53:00,1.0,-8.0,-100.00,NNW,330,12.0,16.0,64,0.00,,,0.00,,2013-01-24 00:53:00,
2013-01-23 19:03:00,1.0,-9.0,-100.00,NNW,335,12.0,17.0,63,0.00,,,0.00,,2013-01-24 01:03:00,
2013-01-23 19:12:00,1.0,-9.0,-100.00,NNW,330,14.0,16.0,62,0.00,,,0.00,,2013-01-24 01:12:00,
2013-01-23 19:23:00,1.0,-9.0,-100.00,NNW,345,16.0,22.0,61,0.00,,,0.00,,2013-01-24 01:23:00,
2013-01-23 19:33:00,0.0,-9.0,-100.00,NNW,340,16.0,21.0,61,0.00,,,0.00,,2013-01-24 01:33:00,
2013-01-23 19:42:00,0.0,-9.0,-100.00,NNW,345,13.0,20.0,61,0.00,,,0.00,,2013-01-24 01:42:00,
2013-01-23 19:52:00,0.0,-9.0,-100.00,NNW,345,12.0,18.0,61,0.00,,,0.00,,2013-01-24 01:52:00,
2013-01-23 20:02:00,0.0,-9.0,-100.00,North,350,14.0,17.0,61,0.00,,,0.00,,2013-01-24 02:02:00,
2013-01-23 20:12:00,0.0,-11.0,-100.00,North,0,12.0,17.0,61,0.00,,,0.00,,2013-01-24 02:12:00,
2013-01-23 20:22:00,0.0,-11.0,-100.00,North,0,10.0,15.0,61,0.00,,,0.00,,2013-01-24 02:22:00,
2013-01-23 20:33:00,-1.0,-11.0,-100.00,North,0,7.0,12.0,63,0.00,,,0.00,,2013-01-24 02:33:00,
2013-01-23 20:42:00,-1.0,-11.0,-100.00,North,0,7.0,12.0,63,0.00,,,0.00,,2013-01-24 02:42:00,
2013-01-23 20:52:00,-1.0,-11.0,-100.00,North,0,7.0,12.0,63,0.00,,,0.00,,2013-01-24 02:52:00,
2013-01-23 21:02:00,-1.0,-11.0,-100.00,North,0,13.0,18.0,62,0.00,,,0.00,,2013-01-24 03:02:00,
2013-01-23 21:12:00,-1.0,-11.0,-100.00,North,0,14.0,17.0,62,0.00,,,0.00,,2013-01-24 03:12:00,
2013-01-23 21:22:00,-2.0,-11.0,-100.00,North,0,12.0,16.0,63,0.00,,,0.00,,2013-01-24 03:22:00,
2013-01-23 21:33:00,-2.0,-11.0,-100.00,North,0,14.0,17.0,64,0.00,,,0.00,,2013-01-24 03:33:00,
2013-01-23 21:43:00,-2.0,-11.0,-100.00,North,5,16.0,21.0,64,0.00,,,0.00,,2013-01-24 03:43:00,
2013-01-23 21:52:00,-3.0,-11.0,-100.00,North,10,12.0,16.0,64,0.00,,,0.00,,2013-01-24 03:52:00,
2013-01-23 22:02:00,-3.0,-11.0,-100.00,North,0,9.0,14.0,65,0.00,,,0.00,,2013-01-24 04:02:00,
2013-01-23 22:12:00,-3.0,-11.0,-100.00,NNE,15,13.0,16.0,64,0.00,,,0.00,,2013-01-24 04:12:00,
2013-01-23 22:22:00,-3.0,-13.0,-100.00,North,10,12.0,17.0,64,0.00,,,0.00,,2013-01-24 04:22:00,
2013-01-23 22:32:00,-3.0,-13.0,-100.00,North,5,11.0,16.0,64,0.00,,,0.00,,2013-01-24 04:32:00,
2013-01-23 22:42:00,-3.0,-13.0,-100.00,NNE,15,11.0,14.0,64,0.00,,,0.00,,2013-01-24 04:42:00,
2013-01-23 22:52:00,-4.0,-13.0,-100.00,North,10,10.0,16.0,64,0.00,,,0.00,,2013-01-24 04:52:00,
2013-01-23 23:03:00,-4.0,-13.0,-100.00,NNE,15,12.0,14.0,65,0.00,,,0.00,,2013-01-24 05:03:00,
2013-01-23 23:12:00,-4.0,-13.0,-100.00,NNE,15,11.0,14.0,65,0.00,,,0.00,,2013-01-24 05:12:00,
2013-01-23 23:22:00,-4.0,-13.0,-100.00,North,5,10.0,14.0,65,0.00,,,0.00,,2013-01-24 05:22:00,
2013-01-23 23:33:00,-4.0,-13.0,-100.00,North,10,10.0,12.0,66,0.00,,,0.00,,2013-01-24 05:33:00,
2013-01-23 23:42:00,-5.0,-13.0,-100.00,NNE,25,12.0,17.0,65,0.00,,,0.00,,2013-01-24 05:42:00,
2013-01-23 23:52:00,-5.0,-13.0,-100.00,NNE,15,10.0,16.0,65,0.00,,,0.00,,2013-01-24 05:52:00,